sat.trackr.live / text

‹ back to catalog

STARLINK-30715

NORAD 57941 · 2023-148G

PAYLOAD ACTIVE UNKNOWN

§ Identity

Operator
Country
US
Launch date
2023-09-25
Launch site
AFWTR
Launch vehicle
Mass (kg)
RCS (m²)

Purposes: comms

External: N2YO · Heavens-Above · Gunter

§ Orbital elements

Epoch: 2026-05-25T00:35:27.078144Z

Period
94.11 min
Inclination
53.1611°
Eccentricity
0.0001091
Mean motion
15.30194133 rev/d
Perigee alt
474.5 km
Apogee alt
476.0 km
Semi-major
6,853.4 km
B*
2.4638e-6
RAAN
19.4171°
Arg perigee
102.4397°
Mean anomaly
257.6725°
Rev number
15,025

§ Raw data

STARLINK-307151 57941U 23148G   26145.02461896 -.00000286  00000+0  24638-5 0  99922 57941  53.1611  19.4171 0001091 102.4397 257.6725 15.30194133150252

JSON: /api/v1/satellites/57941 · /tle

For live sub-satellite position, see the globe view (requires WebGL).

§ Visibility from observer

Set your observer location to see the next 7 days of passes ≥ 10°. The values pass through the URL so the page stays shareable.

No JS? Fill the form by hand. The geolocation button needs JavaScript.